Location: Brno
(49.2000°N, 16.6330°E)
Time: 19:09:59
(UTC+02:00)

Transit 4A - Pass Details

Date: 31 July 2021
Orbit: 871 x 974 km, 66.8° (Epoch: 16 September)

Event Time Altitude Azimuth Distance (km) Brightness Sun altitude
Rises 02:08:03 0° 231° (SW) 3,486 - -20.9°
Reaches altitude 10° 02:10:38 10° 237° (WSW) 2,538 - -20.7°
Exits shadow 02:13:07 25° 248° (WSW) 1,692 8.9 -20.6°
Maximum altitude 02:16:20 52° 313° (NW) 1,078 8.3 -20.4°
Drops below altitude 10° 02:22:01 10° 30° (NNE) 2,528 11.4 -20.1°
Sets 02:24:35 0° 35° (NE) 3,471 12.3 -20.0°
